Location: Archemont
(49.1579°N, 1.7598°E)
Time: 07:42:55
(UTC+00:00)

S-56A Canister/Altair - Pass Details

Date: 23 April 2024
Orbit: 638 x 2488 km, 38.9° (Epoch: 18 May)

Event Time Altitude Azimuth Distance (km) Brightness Sun altitude
Rises 15:14:37 0° 209° (SSW) 2,974 11.2 34.8°
Reaches altitude 10° 15:17:37 10° 186° (S) 2,176 10.3 34.3°
Maximum altitude 15:20:35 16° 149° (SSE) 1,963 9.7 33.9°
Drops below altitude 10° 15:23:59 10° 113° (ESE) 2,577 9.9 33.4°
Sets 15:28:03 0° 93° (E) 3,858 10.6 32.8°
